| time (UTC) | temp F | wind direction | speed knots | gust knots | rain 1hr in | rain 24hr in | rain mn in | humidity % | barometer mb |
| 20260506004541 | 75 | 305 | 1.7 | 1.7 | 0.00 | 0.00 | 0.00 | 49 | 1010.8 |
| 20260506004037 | 75 | 76 | 1.7 | 4.3 | 0.00 | 0.00 | 0.00 | 48 | 1010.7 |
| 20260506003533 | 75 | 210 | 3.5 | 5.2 | 0.00 | 0.00 | 0.00 | 47 | 1010.6 |
| 20260506003030 | 76 | 241 | 2.6 | 7.0 | 0.00 | 0.00 | 0.00 | 47 | 1010.6 |
| 20260506002526 | 76 | 259 | 2.6 | 4.3 | 0.00 | 0.00 | 0.00 | 47 | 1010.6 |
| 20260506002022 | 75 | 245 | 3.5 | 5.2 | 0.00 | 0.00 | 0.00 | 47 | 1010.7 |
| 20260506001518 | 76 | 294 | 2.6 | 2.6 | 0.00 | 0.00 | 0.00 | 47 | 1010.5 |
| 20260506001015 | 76 | 161 | 0.0 | 0.0 | 0.00 | 0.00 | 0.00 | 47 | 1010.5 |
| 20260506000513 | 76 | 273 | 1.7 | 1.7 | 0.00 | 0.00 | 0.00 | 47 | 1010.3 |
| 20260506000010 | 76 | 243 | 4.3 | 7.0 | 0.00 | 0.00 | 0.00 | 46 | 1010.3 |
| 20260505235508 | 76 | 237 | 0.9 | 0.9 | 0.00 | 0.00 | 0.00 | 46 | 1010.4 |
| 20260505235004 | 77 | 198 | 2.6 | 4.3 | 0.00 | 0.00 | 0.00 | 46 | 1010.5 |
| 20260505234502 | 77 | 202 | 2.6 | 4.3 | 0.00 | 0.00 | 0.00 | 45 | 1010.1 |
| 20260505233958 | 77 | 292 | 4.3 | 6.1 | 0.00 | 0.00 | 0.00 | 45 | 1010.3 |
| 20260505233456 | 77 | 300 | 0.9 | 0.9 | 0.00 | 0.00 | 0.00 | 45 | 1010.2 |
| 20260505232953 | 77 | 255 | 2.6 | 5.2 | 0.00 | 0.00 | 0.00 | 45 | 1010.4 |
| 20260505232451 | 77 | 148 | 3.5 | 5.2 | 0.00 | 0.00 | 0.00 | 45 | 1010.3 |
| 20260505231948 | 77 | 206 | 4.3 | 5.2 | 0.00 | 0.00 | 0.00 | 45 | 1010.2 |
| 20260505231445 | 77 | 212 | 1.7 | 2.6 | 0.00 | 0.00 | 0.00 | 45 | 1010.4 |
| 20260505230943 | 78 | 226 | 4.3 | 6.1 | 0.00 | 0.00 | 0.00 | 45 | 1010.2 |
| 20260505230441 | 78 | 241 | 3.5 | 5.2 | 0.00 | 0.00 | 0.00 | 45 | 1010.3 |
| 20260505225937 | 78 | 248 | 0.9 | 1.7 | 0.00 | 0.00 | 0.00 | 45 | 1010.2 |
| 20260505225434 | 78 | 307 | 6.1 | 7.8 | 0.00 | 0.00 | 0.00 | 44 | 1010.2 |
| 20260505224930 | 78 | 77 | 3.5 | 5.2 | 0.00 | 0.00 | 0.00 | 45 | 1010.0 |
| 20260505224427 | 78 | 221 | 0.9 | 2.6 | 0.00 | 0.00 | 0.00 | 45 | 1010.2 |
| 20260505223924 | 78 | 308 | 4.3 | 7.8 | 0.00 | 0.00 | 0.00 | 44 | 1010.1 |
| 20260505223421 | 79 | 238 | 1.7 | 5.2 | 0.00 | 0.00 | 0.00 | 44 | 1010.1 |
| 20260505222918 | 80 | 238 | 3.5 | 6.1 | 0.00 | 0.00 | 0.00 | 43 | 1009.9 |
| 20260505222414 | 80 | 265 | 3.5 | 7.8 | 0.00 | 0.00 | 0.00 | 44 | 1010.0 |
| 20260505221910 | 80 | 243 | 0.9 | 2.6 | 0.00 | 0.00 | 0.00 | 42 | 1010.2 |
| 20260505221408 | 80 | 181 | 0.9 | 0.9 | 0.00 | 0.00 | 0.00 | 43 | 1009.9 |
| 20260505220904 | 81 | 246 | 2.6 | 4.3 | 0.00 | 0.00 | 0.00 | 41 | 1009.9 |
| 20260505220401 | 81 | 306 | 4.3 | 6.1 | 0.00 | 0.00 | 0.00 | 42 | 1010.0 |
| 20260505215859 | 81 | 208 | 4.3 | 8.7 | 0.00 | 0.00 | 0.00 | 41 | 1010.0 |
| 20260505215357 | 81 | 188 | 7.0 | 8.7 | 0.00 | 0.00 | 0.00 | 40 | 1010.1 |
| 20260505214855 | 80 | 224 | 3.5 | 7.0 | 0.00 | 0.00 | 0.00 | 40 | 1009.9 |
| 20260505214352 | 80 | 181 | 4.3 | 9.6 | 0.00 | 0.00 | 0.00 | 42 | 1010.0 |
| 20260505213849 | 81 | 262 | 5.2 | 7.0 | 0.00 | 0.00 | 0.00 | 41 | 1010.2 |
| 20260505213347 | 82 | 158 | 4.3 | 7.8 | 0.00 | 0.00 | 0.00 | 40 | 1009.9 |
| 20260505212842 | 81 | 233 | 6.1 | 7.8 | 0.00 | 0.00 | 0.00 | 41 | 1009.9 |
| 20260505212340 | 81 | 228 | 6.1 | 9.6 | 0.00 | 0.00 | 0.00 | 41 | 1009.8 |
| 20260505211836 | 80 | 224 | 1.7 | 2.6 | 0.00 | 0.00 | 0.00 | 43 | 1009.7 |
| 20260505211334 | 80 | 228 | 6.1 | 7.0 | 0.00 | 0.00 | 0.00 | 42 | 1009.6 |
| 20260505210830 | 80 | 185 | 3.5 | 5.2 | 0.00 | 0.00 | 0.00 | 42 | 1009.8 |
| 20260505210327 | 80 | 260 | 2.6 | 4.3 | 0.00 | 0.00 | 0.00 | 41 | 1009.4 |
| 20260505205824 | 80 | 131 | 5.2 | 7.8 | 0.00 | 0.00 | 0.00 | 42 | 1009.8 |
| 20260505205322 | 80 | 115 | 6.1 | 11.3 | 0.00 | 0.00 | 0.00 | 42 | 1009.9 |
| 20260505204818 | 80 | 329 | 7.8 | 9.6 | 0.00 | 0.00 | 0.00 | 42 | 1010.0 |
| 20260505204317 | 80 | 277 | 1.7 | 2.6 | 0.00 | 0.00 | 0.00 | 42 | 1009.9 |
| 20260505203814 | 80 | 23 | 5.2 | 7.8 | 0.00 | 0.00 | 0.00 | 42 | 1010.0 |
| 20260505203310 | 80 | 118 | 2.6 | 2.6 | 0.00 | 0.00 | 0.00 | 42 | 1010.2 |
| 20260505202806 | 81 | 31 | 2.6 | 2.6 | 0.00 | 0.00 | 0.00 | 42 | 1009.9 |
| 20260505202306 | 81 | 245 | 5.2 | 6.1 | 0.00 | 0.00 | 0.00 | 42 | 1010.3 |
| 20260505201759 | 81 | 210 | 2.6 | 5.2 | 0.00 | 0.00 | 0.00 | 42 | 1010.1 |
| 20260505201257 | 82 | 246 | 6.1 | 11.3 | 0.00 | 0.00 | 0.00 | 41 | 1010.2 |
| 20260505200755 | 81 | 266 | 4.3 | 5.2 | 0.00 | 0.00 | 0.00 | 42 | 1010.3 |
| 20260505200252 | 81 | 138 | 4.3 | 9.6 | 0.00 | 0.00 | 0.00 | 40 | 1010.2 |
| 20260505195747 | 80 | 172 | 1.7 | 1.7 | 0.00 | 0.00 | 0.00 | 43 | 1010.0 |
| 20260505195245 | 80 | 217 | 4.3 | 7.0 | 0.00 | 0.00 | 0.00 | 42 | 1010.1 |
| 20260505194742 | 81 | 300 | 6.1 | 7.8 | 0.00 | 0.00 | 0.00 | 40 | 1010.4 |
| 20260505194238 | 81 | 237 | 7.0 | 9.6 | 0.00 | 0.00 | 0.00 | 41 | 1010.2 |
| 20260505193734 | 81 | 203 | 2.6 | 5.2 | 0.00 | 0.00 | 0.00 | 41 | 1010.2 |
| 20260505193232 | 81 | 154 | 1.7 | 2.6 | 0.00 | 0.00 | 0.00 | 43 | 1010.4 |
| 20260505192730 | 82 | 265 | 7.8 | 11.3 | 0.00 | 0.00 | 0.00 | 41 | 1010.3 |
| 20260505192227 | 82 | 267 | 3.5 | 7.0 | 0.00 | 0.00 | 0.00 | 40 | 1010.3 |
| 20260505191725 | 81 | 186 | 4.3 | 7.0 | 0.00 | 0.00 | 0.00 | 41 | 1010.4 |
| 20260505191223 | 81 | 223 | 4.3 | 6.1 | 0.00 | 0.00 | 0.00 | 40 | 1010.6 |
| 20260505190719 | 81 | 275 | 4.3 | 6.1 | 0.00 | 0.00 | 0.00 | 40 | 1010.5 |
| 20260505190219 | 81 | 171 | 1.7 | 4.3 | 0.00 | 0.00 | 0.00 | 41 | 1010.5 |
| 20260505185716 | 81 | 199 | 2.6 | 2.6 | 0.00 | 0.00 | 0.00 | 42 | 1010.6 |
| 20260505185213 | 82 | 225 | 3.5 | 4.3 | 0.00 | 0.00 | 0.00 | 41 | 1010.8 |
| 20260505184709 | 81 | 172 | 2.6 | 5.2 | 0.00 | 0.00 | 0.00 | 40 | 1010.9 |
| 20260505184206 | 82 | 287 | 2.6 | 4.3 | 0.00 | 0.00 | 0.00 | 39 | 1010.8 |
| 20260505183703 | 82 | 256 | 4.3 | 7.0 | 0.00 | 0.00 | 0.00 | 39 | 1010.7 |
| 20260505183201 | 82 | 242 | 3.5 | 6.1 | 0.00 | 0.00 | 0.00 | 40 | 1010.8 |
| 20260505182656 | 81 | 252 | 4.3 | 7.0 | 0.00 | 0.00 | 0.00 | 39 | 1010.6 |
| 20260505182154 | 82 | 275 | 7.8 | 8.7 | 0.00 | 0.00 | 0.00 | 39 | 1010.9 |
| 20260505181650 | 81 | 212 | 1.7 | 2.6 | 0.00 | 0.00 | 0.00 | 41 | 1010.8 |
| 20260505181148 | 81 | 253 | 2.6 | 6.1 | 0.00 | 0.00 | 0.00 | 41 | 1010.7 |
| 20260505180643 | 82 | 247 | 3.5 | 7.0 | 0.00 | 0.00 | 0.00 | 40 | 1010.9 |
| 20260505180141 | 81 | 328 | 0.9 | 1.7 | 0.00 | 0.00 | 0.00 | 40 | 1011.0 |
| 20260505175637 | 81 | 182 | 2.6 | 2.6 | 0.00 | 0.00 | 0.00 | 43 | 1011.0 |
| 20260505175133 | 81 | 253 | 6.1 | 7.8 | 0.00 | 0.00 | 0.00 | 41 | 1011.0 |
| 20260505174630 | 81 | 271 | 7.0 | 8.7 | 0.00 | 0.00 | 0.00 | 39 | 1010.9 |
| 20260505174126 | 81 | 195 | 2.6 | 4.3 | 0.00 | 0.00 | 0.00 | 40 | 1011.0 |
| 20260505173623 | 81 | 276 | 1.7 | 1.7 | 0.00 | 0.00 | 0.00 | 41 | 1010.9 |
| 20260505173120 | 81 | 220 | 3.5 | 5.2 | 0.00 | 0.00 | 0.00 | 43 | 1011.1 |
| 20260505172618 | 81 | 222 | 3.5 | 5.2 | 0.00 | 0.00 | 0.00 | 44 | 1011.0 |
| 20260505172114 | 81 | 227 | 6.1 | 7.8 | 0.00 | 0.00 | 0.00 | 44 | 1011.2 |
| 20260505171609 | 82 | 263 | 4.3 | 5.2 | 0.00 | 0.00 | 0.00 | 44 | 1011.2 |
| 20260505171106 | 81 | 310 | 2.6 | 5.2 | 0.00 | 0.00 | 0.00 | 45 | 1011.4 |
| 20260505170603 | 80 | 232 | 0.9 | 1.7 | 0.00 | 0.00 | 0.00 | 45 | 1011.3 |
| 20260505170059 | 80 | 307 | 4.3 | 4.3 | 0.00 | 0.00 | 0.00 | 44 | 1011.4 |
| 20260505165554 | 80 | 272 | 3.5 | 5.2 | 0.00 | 0.00 | 0.00 | 44 | 1011.4 |
| 20260505165050 | 80 | 277 | 4.3 | 6.1 | 0.00 | 0.00 | 0.00 | 45 | 1011.5 |
| 20260505164546 | 80 | 158 | 4.3 | 6.1 | 0.00 | 0.00 | 0.00 | 46 | 1011.5 |
| 20260505164044 | 81 | 236 | 2.6 | 4.3 | 0.00 | 0.00 | 0.00 | 49 | 1011.6 |
| 20260505163543 | 80 | 265 | 3.5 | 6.1 | 0.00 | 0.00 | 0.00 | 47 | 1011.7 |
| 20260505163039 | 80 | 269 | 4.3 | 6.1 | 0.00 | 0.00 | 0.00 | 46 | 1011.6 |
| 20260505162532 | 80 | 310 | 4.3 | 8.7 | 0.00 | 0.00 | 0.00 | 45 | 1011.6 |
| 20260505162029 | 80 | 230 | 3.5 | 5.2 | 0.00 | 0.00 | 0.00 | 48 | 1011.8 |
| 20260505161526 | 80 | 213 | 4.3 | 6.1 | 0.00 | 0.00 | 0.00 | 46 | 1011.5 |
| 20260505161023 | 79 | 197 | 4.3 | 5.2 | 0.00 | 0.00 | 0.00 | 47 | 1011.7 |
| 20260505160521 | 79 | 137 | 4.3 | 5.2 | 0.00 | 0.00 | 0.00 | 47 | 1011.6 |
| 20260505152957 | 79 | 244 | 4.3 | 5.2 | 0.00 | 0.00 | 0.00 | 48 | 1012.2 |
| 20260505152455 | 78 | 266 | 1.7 | 5.2 | 0.00 | 0.00 | 0.00 | 47 | 1012.0 |
| 20260505151949 | 79 | 248 | 5.2 | 6.1 | 0.00 | 0.00 | 0.00 | 49 | 1012.1 |
| 20260505151445 | 78 | 262 | 4.3 | 5.2 | 0.00 | 0.00 | 0.00 | 49 | 1012.1 |
| 20260505150943 | 77 | 155 | 0.9 | 0.9 | 0.00 | 0.00 | 0.00 | 51 | 1012.0 |
| 20260505150439 | 76 | 261 | 2.6 | 2.6 | 0.00 | 0.00 | 0.00 | 50 | 1012.3 |
| 20260505140410 | 72 | 213 | 3.5 | 4.3 | 0.00 | 0.00 | 0.00 | 57 | 1012.8 |
| 20260505124823 | 67 | 157 | 1.7 | 1.7 | 0.00 | 0.00 | 0.00 | 65 | 1013.0 |
| 20260505124320 | 66 | 101 | 0.9 | 0.9 | 0.00 | 0.00 | 0.00 | 66 | 1013.0 |
| 20260505123815 | 66 | 98 | 2.6 | 4.3 | 0.00 | 0.00 | 0.00 | 66 | 1013.0 |
| 20260505123313 | 66 | 275 | 2.6 | 4.3 | 0.00 | 0.00 | 0.00 | 67 | 1013.1 |
| 20260505122809 | 65 | 173 | 0.9 | 1.7 | 0.00 | 0.00 | 0.00 | 67 | 1013.1 |
| 20260505122306 | 65 | 191 | 2.6 | 4.3 | 0.00 | 0.00 | 0.00 | 67 | 1013.0 |
| 20260505121802 | 65 | 101 | 0.0 | 0.0 | 0.00 | 0.00 | 0.00 | 69 | 1013.0 |
| 20260505121300 | 64 | 144 | 0.0 | 0.9 | 0.00 | 0.00 | 0.00 | 70 | 1013.0 |
| 20260505120756 | 64 | 103 | 0.0 | 0.0 | 0.00 | 0.00 | 0.00 | 71 | 1012.8 |
| 20260505120252 | 64 | 71 | 0.9 | 0.9 | 0.00 | 0.00 | 0.00 | 71 | 1012.8 |
| 20260505115751 | 63 | 133 | 1.7 | 2.6 | 0.00 | 0.00 | 0.00 | 71 | 1012.7 |
| 20260505115248 | 63 | 95 | 0.0 | 0.0 | 0.00 | 0.00 | 0.00 | 71 | 1012.9 |
| 20260505114746 | 63 | 138 | 0.9 | 1.7 | 0.00 | 0.00 | 0.00 | 71 | 1012.9 |
| 20260505114242 | 62 | 153 | 0.9 | 0.9 | 0.00 | 0.00 | 0.00 | 72 | 1012.7 |
| 20260505113739 | 62 | 175 | 0.9 | 0.9 | 0.00 | 0.00 | 0.00 | 72 | 1012.6 |
| 20260505113235 | 62 | 188 | 1.7 | 4.3 | 0.00 | 0.00 | 0.00 | 73 | 1012.7 |
| 20260505112731 | 61 | 119 | 0.0 | 0.0 | 0.00 | 0.00 | 0.00 | 74 | 1012.5 |
| 20260505112229 | 62 | 182 | 1.7 | 4.3 | 0.00 | 0.00 | 0.00 | 73 | 1012.6 |
| 20260505111729 | 61 | 221 | 1.7 | 1.7 | 0.00 | 0.00 | 0.00 | 73 | 1012.6 |
| 20260505111225 | 61 | 282 | 0.0 | 0.9 | 0.00 | 0.00 | 0.00 | 74 | 1012.5 |
| 20260505110721 | 60 | 148 | 0.0 | 0.9 | 0.00 | 0.00 | 0.00 | 75 | 1012.5 |
| 20260505110219 | 60 | 225 | 2.6 | 2.6 | 0.00 | 0.00 | 0.00 | 75 | 1012.3 |
| 20260505102154 | 58 | 280 | 1.7 | 1.7 | 0.00 | 0.00 | 0.00 | 78 | 1012.1 |
| 20260505101653 | 58 | 196 | 0.9 | 0.9 | 0.00 | 0.00 | 0.00 | 79 | 1012.3 |
| 20260505101149 | 57 | 139 | 0.9 | 1.7 | 0.00 | 0.00 | 0.00 | 81 | 1012.0 |
| 20260505100645 | 57 | 158 | 0.0 | 0.0 | 0.00 | 0.00 | 0.00 | 82 | 1012.1 |
| 20260505100142 | 57 | 91 | 0.0 | 0.9 | 0.00 | 0.00 | 0.00 | 80 | 1012.0 |
| 20260505095638 | 57 | 134 | 1.7 | 1.7 | 0.00 | 0.00 | 0.00 | 81 | 1012.1 |
| 20260505095136 | 57 | 175 | 0.0 | 0.0 | 0.00 | 0.00 | 0.00 | 80 | 1012.0 |
| 20260505094631 | 58 | 271 | 1.7 | 1.7 | 0.00 | 0.00 | 0.00 | 78 | 1012.0 |
| 20260505094128 | 58 | 178 | 0.0 | 0.0 | 0.00 | 0.00 | 0.00 | 78 | 1011.9 |
| 20260505093624 | 58 | 275 | 0.0 | 0.9 | 0.00 | 0.00 | 0.00 | 78 | 1011.9 |
| 20260505093121 | 57 | 270 | 0.9 | 1.7 | 0.00 | 0.00 | 0.00 | 81 | 1011.9 |
| 20260505092618 | 57 | 161 | 0.0 | 0.0 | 0.00 | 0.00 | 0.00 | 80 | 1011.9 |
| 20260505092118 | 58 | 169 | 0.0 | 0.0 | 0.00 | 0.00 | 0.00 | 79 | 1012.0 |
| 20260505091613 | 58 | 202 | 0.9 | 0.9 | 0.00 | 0.00 | 0.00 | 78 | 1012.0 |
| 20260505091112 | 59 | 172 | 0.0 | 0.0 | 0.00 | 0.00 | 0.00 | 77 | 1011.8 |
| 20260505090609 | 59 | 214 | 0.0 | 0.9 | 0.00 | 0.00 | 0.00 | 76 | 1011.7 |
| 20260505090108 | 59 | 162 | 0.0 | 0.0 | 0.00 | 0.00 | 0.00 | 76 | 1012.1 |
| 20260505085604 | 60 | 144 | 0.0 | 0.0 | 0.00 | 0.00 | 0.00 | 75 | 1012.0 |
| 20260505085103 | 60 | 204 | 0.0 | 0.0 | 0.00 | 0.00 | 0.00 | 75 | 1012.0 |
| 20260505084600 | 60 | 154 | 0.0 | 0.0 | 0.00 | 0.00 | 0.00 | 75 | 1011.7 |
| 20260505084058 | 60 | 236 | 0.0 | 0.9 | 0.00 | 0.00 | 0.00 | 74 | 1011.8 |
| 20260505083555 | 60 | 173 | 0.0 | 0.0 | 0.00 | 0.00 | 0.00 | 74 | 1011.8 |
| 20260505083052 | 60 | 172 | 0.0 | 0.0 | 0.00 | 0.00 | 0.00 | 73 | 1011.9 |
| 20260505082548 | 60 | 171 | 0.0 | 0.0 | 0.00 | 0.00 | 0.00 | 73 | 1011.7 |
| 20260505082045 | 61 | 134 | 0.0 | 0.0 | 0.00 | 0.00 | 0.00 | 73 | 1011.8 |
| 20260505081541 | 61 | 180 | 0.9 | 0.9 | 0.00 | 0.00 | 0.00 | 71 | 1011.9 |
| 20260505081038 | 61 | 182 | 0.9 | 0.9 | 0.00 | 0.00 | 0.00 | 72 | 1011.6 |
| 20260505080534 | 61 | 242 | 1.7 | 2.6 | 0.00 | 0.00 | 0.00 | 71 | 1011.7 |
| 20260505080031 | 62 | 242 | 3.5 | 5.2 | 0.00 | 0.00 | 0.00 | 71 | 1011.7 |
| 20260505075527 | 62 | 164 | 0.0 | 0.9 | 0.00 | 0.00 | 0.00 | 70 | 1011.7 |
| 20260505075024 | 62 | 174 | 0.0 | 0.9 | 0.00 | 0.00 | 0.00 | 70 | 1011.7 |
| 20260505074521 | 62 | 241 | 0.9 | 1.7 | 0.00 | 0.00 | 0.00 | 70 | 1011.6 |
| 20260505074018 | 62 | 263 | 0.9 | 1.7 | 0.00 | 0.00 | 0.00 | 70 | 1011.7 |
| 20260505073516 | 62 | 238 | 0.9 | 0.9 | 0.00 | 0.00 | 0.00 | 70 | 1011.6 |
| 20260505073014 | 62 | 289 | 0.9 | 2.6 | 0.00 | 0.00 | 0.00 | 69 | 1011.7 |
| 20260505072509 | 62 | 233 | 1.7 | 1.7 | 0.00 | 0.00 | 0.00 | 69 | 1011.7 |
| 20260505072006 | 62 | 257 | 0.9 | 0.9 | 0.00 | 0.00 | 0.00 | 69 | 1011.9 |
| 20260505071501 | 62 | 199 | 0.9 | 0.9 | 0.00 | 0.00 | 0.00 | 69 | 1011.6 |
| 20260505071000 | 62 | 225 | 4.3 | 5.2 | 0.00 | 0.00 | 0.00 | 68 | 1011.8 |
| 20260505070456 | 62 | 196 | 1.7 | 2.6 | 0.00 | 0.00 | 0.00 | 68 | 1011.8 |
| 20260505065952 | 62 | 279 | 1.7 | 1.7 | 0.00 | 0.00 | 0.00 | 68 | 1011.9 |
| 20260505065448 | 62 | 225 | 3.5 | 4.3 | 0.00 | 0.00 | 0.00 | 68 | 1011.8 |
| 20260505064945 | 62 | 251 | 0.0 | 0.9 | 0.00 | 0.00 | 0.00 | 68 | 1011.8 |
| 20260505064442 | 62 | 223 | 1.7 | 1.7 | 0.00 | 0.00 | 0.00 | 68 | 1011.7 |
| 20260505063941 | 62 | 227 | 2.6 | 2.6 | 0.00 | 0.00 | 0.00 | 68 | 1011.7 |
| 20260505063437 | 62 | 291 | 6.1 | 8.7 | 0.00 | 0.00 | 0.00 | 68 | 1011.6 |
| 20260505062933 | 61 | 216 | 2.6 | 2.6 | 0.00 | 0.00 | 0.00 | 68 | 1011.7 |
| 20260505062431 | 61 | 234 | 0.9 | 0.9 | 0.00 | 0.00 | 0.00 | 69 | 1011.6 |
| 20260505061927 | 61 | 215 | 0.9 | 1.7 | 0.00 | 0.00 | 0.00 | 68 | 1011.9 |
| 20260505061426 | 61 | 226 | 0.9 | 1.7 | 0.00 | 0.00 | 0.00 | 68 | 1011.9 |
| 20260505060923 | 61 | 212 | 0.0 | 0.0 | 0.00 | 0.00 | 0.00 | 68 | 1012.0 |
| 20260505060419 | 61 | 220 | 1.7 | 2.6 | 0.00 | 0.00 | 0.00 | 68 | 1011.8 |
| 20260505055916 | 61 | 264 | 2.6 | 2.6 | 0.00 | 0.00 | 0.00 | 67 | 1011.7 |
| 20260505055412 | 61 | 234 | 0.0 | 0.9 | 0.00 | 0.00 | 0.00 | 67 | 1011.9 |
| 20260505054909 | 61 | 265 | 4.3 | 5.2 | 0.00 | 0.00 | 0.00 | 66 | 1011.6 |
| 20260505054406 | 62 | 223 | 2.6 | 2.6 | 0.00 | 0.00 | 0.00 | 65 | 1011.7 |
| 20260505053904 | 62 | 240 | 1.7 | 1.7 | 0.00 | 0.00 | 0.00 | 65 | 1011.7 |
| 20260505053401 | 62 | 187 | 2.6 | 2.6 | 0.00 | 0.00 | 0.00 | 65 | 1011.6 |
| 20260505052858 | 62 | 257 | 6.1 | 7.8 | 0.00 | 0.00 | 0.00 | 65 | 1011.7 |
| 20260505052355 | 62 | 119 | 1.7 | 1.7 | 0.00 | 0.00 | 0.00 | 65 | 1011.7 |
| 20260505051852 | 62 | 259 | 0.9 | 1.7 | 0.00 | 0.00 | 0.00 | 64 | 1011.8 |
| 20260505051349 | 62 | 217 | 0.9 | 1.7 | 0.00 | 0.00 | 0.00 | 63 | 1011.5 |
| 20260505050847 | 62 | 253 | 2.6 | 4.3 | 0.00 | 0.00 | 0.00 | 64 | 1011.5 |
| 20260505050345 | 62 | 315 | 0.9 | 1.7 | 0.00 | 0.00 | 0.00 | 63 | 1012.0 |
| 20260505041312 | 61 | 295 | 0.0 | 0.9 | 0.00 | 0.00 | 0.00 | 60 | 1011.8 |
| 20260505040809 | 61 | 242 | 0.9 | 1.7 | 0.00 | 0.00 | 0.00 | 61 | 1011.8 |
| 20260505040307 | 59 | 227 | 0.9 | 1.7 | 0.00 | 0.00 | 0.00 | 63 | 1011.6 |
| 20260505035803 | 59 | 189 | 0.9 | 0.9 | 0.00 | 0.00 | 0.00 | 62 | 1011.5 |
| 20260505035259 | 58 | 356 | 0.0 | 0.9 | 0.00 | 0.00 | 0.00 | 64 | 1011.5 |
| 20260505034757 | 58 | 148 | 0.0 | 0.0 | 0.00 | 0.00 | 0.00 | 66 | 1011.9 |
| 20260505034254 | 58 | 148 | 0.0 | 0.0 | 0.00 | 0.00 | 0.00 | 65 | 1011.5 |
| 20260505033750 | 58 | 136 | 0.0 | 0.0 | 0.00 | 0.00 | 0.00 | 64 | 1011.8 |
| 20260505033248 | 58 | 154 | 0.0 | 0.9 | 0.00 | 0.00 | 0.00 | 67 | 1011.5 |
| 20260505032746 | 58 | 152 | 0.0 | 0.0 | 0.00 | 0.00 | 0.00 | 65 | 1011.6 |
| 20260505032241 | 59 | 156 | 0.0 | 0.0 | 0.00 | 0.00 | 0.00 | 65 | 1011.6 |
| 20260505031739 | 59 | 154 | 0.0 | 0.0 | 0.00 | 0.00 | 0.00 | 63 | 1011.6 |
| 20260505031235 | 59 | 163 | 0.0 | 0.0 | 0.00 | 0.00 | 0.00 | 63 | 1011.3 |
| 20260505030732 | 60 | 159 | 0.0 | 0.0 | 0.00 | 0.00 | 0.00 | 61 | 1011.7 |
| 20260505030228 | 60 | 148 | 0.0 | 0.0 | 0.00 | 0.00 | 0.00 | 61 | 1011.5 |
| 20260505025724 | 60 | 173 | 0.0 | 0.0 | 0.00 | 0.00 | 0.00 | 60 | 1011.8 |
| 20260505025223 | 60 | 118 | 0.0 | 0.0 | 0.00 | 0.00 | 0.00 | 60 | 1011.5 |
| 20260505024720 | 60 | 146 | 0.0 | 0.0 | 0.00 | 0.00 | 0.00 | 61 | 1011.9 |
| 20260505024217 | 60 | 148 | 0.0 | 0.0 | 0.00 | 0.00 | 0.00 | 61 | 1011.7 |
| 20260505023715 | 61 | 244 | 0.0 | 0.0 | 0.00 | 0.00 | 0.00 | 61 | 1011.9 |
| 20260505023212 | 62 | 273 | 0.0 | 0.0 | 0.00 | 0.00 | 0.00 | 58 | 1012.1 |
| 20260505022709 | 61 | 125 | 0.9 | 1.7 | 0.00 | 0.00 | 0.00 | 59 | 1011.9 |
| 20260505022206 | 62 | 319 | 0.0 | 0.0 | 0.00 | 0.00 | 0.00 | 58 | 1011.7 |
| 20260505021703 | 62 | 156 | 0.0 | 0.9 | 0.00 | 0.00 | 0.00 | 58 | 1011.8 |
| 20260505021159 | 63 | 179 | 0.0 | 0.9 | 0.00 | 0.00 | 0.00 | 57 | 1011.9 |
| 20260505020655 | 62 | 99 | 0.9 | 1.7 | 0.00 | 0.00 | 0.00 | 58 | 1011.8 |
| 20260505020151 | 63 | 152 | 0.0 | 0.9 | 0.00 | 0.00 | 0.00 | 56 | 1012.2 |
| 20260505015648 | 64 | 124 | 0.0 | 0.0 | 0.00 | 0.00 | 0.00 | 55 | 1012.0 |
| 20260505015145 | 64 | 135 | 0.0 | 0.9 | 0.00 | 0.00 | 0.00 | 54 | 1011.8 |
| 20260505014642 | 64 | 124 | 0.0 | 0.0 | 0.00 | 0.00 | 0.00 | 53 | 1011.8 |
| 20260505014139 | 64 | 147 | 0.0 | 0.9 | 0.00 | 0.00 | 0.00 | 54 | 1011.9 |
| 20260505013636 | 63 | 152 | 0.0 | 0.0 | 0.00 | 0.00 | 0.00 | 56 | 1011.9 |
| 20260505013133 | 63 | 152 | 0.0 | 0.0 | 0.00 | 0.00 | 0.00 | 57 | 1011.9 |
| 20260505012632 | 63 | 161 | 0.0 | 0.0 | 0.00 | 0.00 | 0.00 | 58 | 1011.9 |
| 20260505012128 | 62 | 154 | 0.0 | 0.0 | 0.00 | 0.00 | 0.00 | 58 | 1012.0 |
| 20260505011624 | 61 | 156 | 0.0 | 0.0 | 0.00 | 0.00 | 0.00 | 60 | 1011.9 |
| 20260505011121 | 61 | 158 | 0.0 | 0.0 | 0.00 | 0.00 | 0.00 | 60 | 1011.7 |
| 20260505010616 | 60 | 157 | 0.0 | 0.0 | 0.00 | 0.00 | 0.00 | 61 | 1011.8 |
| 20260505010114 | 61 | 157 | 0.0 | 0.0 | 0.00 | 0.00 | 0.00 | 61 | 1011.6 |
| 20260505005610 | 61 | 158 | 0.0 | 0.0 | 0.00 | 0.00 | 0.00 | 59 | 1011.5 |
| 20260505005107 | 62 | 157 | 0.0 | 0.0 | 0.00 | 0.00 | 0.00 | 58 | 1011.3 |